Location: Czekanka
(50.4925°N, 19.2643°E)
Time: 08:40:37
(UTC+00:00)

SL-16 R/B - Pass Details

Date: 20 September 2024
Orbit: 842 x 846 km, 71.0° (Epoch: 09 October)

Event Time Altitude Azimuth Distance (km) Brightness Sun altitude
Rises 20:34:30 0° 261° (W) 3,402 5.7 -32.7°
Reaches altitude 10° 20:37:39 10° 279° (W) 2,469 5.1 -33.0°
Maximum altitude 20:41:43 20° 325° (NW) 1,878 4.6 -33.4°
Drops below altitude 10° 20:45:47 10° 11° (N) 2,475 5.1 -33.7°
Sets 20:48:58 0° 28° (NNE) 3,412 5.7 -34.0°
